Flag for Russia Weather past 2 weeks in Murmansk, Russia

Now
45 °F

Partly sunny.


Feels Like: 39 °F
Forecast: 43 / 49 °F
Wind: 10 mph from Northwest

Location: Murmansk Airport

Current Time: Jul 5, 2015 at 9:22:07 AM

Latest Report: Jul 5, 2015 at 8:30 AM


Visibility: N/A

Pressure: 30.01 "Hg

Humidity: 66%

Dew point: 34 °F

Location of MurmanskLocation

Historic Weather in Murmansk — Graph

°F

Murmansk temperature yesterday

Maximum temperature yesterday: 50 °F (at 1:00 PM)
Minimum temperature yesterday: 43 °F (at 11:30 PM)
Average temperature yesterday: 46 °F

Past Weeks' High & Low Weather Summary

 TemperatureHumidityPressure
High72 °F (Jun 22, 3:00 PM)94% (Jun 25, 5:30 AM)30.27 "Hg (Jun 25, 5:30 AM)
Low34 °F (Jul 2, 2:00 AM)20% (Jun 23, 3:30 PM)29.53 "Hg (Jun 26, 3:30 AM)
Average53 °F66%29.92 "Hg
* Reported Jun 20 8:00 AM — Jul 5 8:00 AM, Murmansk, Weather by CustomWeather, © 2015

Note: Actual official high and low records may vary slightly from our data, if they occured in-between our weather recording intervals... More about our weather records

Advertising

Murmansk weather history for previous 24 hours

 ConditionsComfort  
Time TempWeatherWind HumidityBarometerVisibility
8:00 AM
Sun, Jul 5
45 °FPartly sunny.10 mph71%30.04 "HgN/A
7:30 AM43 °FPartly sunny.10 mph71%30.04 "HgN/A
7:00 AM41 °FPartly sunny.8 mph81%30.04 "HgN/A
6:30 AM43 °FPartly sunny.8 mph76%30.01 "HgN/A
6:00 AM41 °FScattered clouds.10 mph81%30.01 "HgN/A
5:30 AM41 °FScattered clouds.8 mph81%30.01 "HgN/A
5:00 AM41 °FScattered clouds.6 mph81%30.01 "HgN/A
4:30 AM41 °FPartly sunny.8 mph81%30.01 "HgN/A
4:00 AM41 °FPartly sunny.8 mph76%30.01 "HgN/A
3:30 AM41 °FPartly sunny.3 mph81%30.01 "HgN/A
3:00 AM41 °FSprinkles. Partly sunny.6 mph81%30.01 "HgN/A
2:30 AM41 °FScattered clouds.6 mph76%30.01 "HgN/A
2:00 AM41 °FScattered clouds.3 mph76%30.01 "HgN/A
1:30 AM41 °FScattered clouds.3 mph76%30.04 "HgN/A
1:00 AM41 °FScattered clouds.6 mph76%30.04 "HgN/A
12:30 AM43 °FScattered clouds.3 mph71%30.04 "HgN/A
12:00 AM43 °FPartly sunny.3 mph71%30.01 "HgN/A
11:30 PM
Sat, Jul 4
43 °FPartly sunny.3 mph71%30.04 "HgN/A
11:00 PM45 °FPartly sunny.8 mph66%30.04 "HgN/A
10:30 PM45 °FPartly sunny.6 mph71%30.01 "HgN/A
10:00 PM45 °FPartly sunny.3 mph71%30.01 "HgN/A
9:00 PM46 °FPartly sunny.6 mph66%30.04 "HgN/A
8:30 PM46 °FPartly sunny.3 mph66%30.04 "HgN/A
8:00 PM46 °FPartly sunny.6 mph66%30.04 "HgN/A
7:30 PM48 °FScattered clouds.6 mph62%30.01 "HgN/A
7:00 PM48 °FPartly sunny.6 mph66%30.01 "HgN/A
6:30 PM48 °FPartly sunny.3 mph66%30.01 "HgN/A
6:00 PM48 °FSprinkles. Partly sunny.3 mph71%30.01 "HgN/A
5:30 PM48 °FSprinkles. Partly sunny.3 mph66%30.01 "HgN/A
5:00 PM48 °FSprinkles. Partly sunny.1 mph71%30.01 "HgN/A
4:30 PM46 °FSprinkles. Partly sunny.3 mph76%30.01 "HgN/A
4:00 PM48 °FPartly sunny.3 mph71%30.01 "HgN/A
3:30 PM46 °FSprinkles. Partly sunny.3 mph82%30.01 "HgN/A
3:00 PM45 °FSprinkles. Partly sunny.6 mph87%30.01 "HgN/A
2:30 PM45 °FSprinkles. Scattered clouds.6 mph81%30.01 "HgN/A
2:00 PM45 °FSprinkles. Scattered clouds.8 mph87%30.01 "HgN/A
1:30 PM48 °FSprinkles. Scattered clouds.3 mph76%30.01 "HgN/A
1:00 PM50 °FScattered clouds.1 mph62%30.01 "HgN/A
12:30 PM48 °FScattered clouds.1 mph71%30.01 "HgN/A
12:00 PM48 °FScattered clouds.3 mph66%30.01 "HgN/A
11:30 AM46 °FSprinkles. Scattered clouds.6 mph82%30.01 "HgN/A
11:00 AM48 °FScattered clouds.6 mph62%30.01 "HgN/A
10:30 AM48 °FScattered clouds.6 mph62%30.01 "HgN/A
10:00 AM48 °FScattered clouds.8 mph62%30.01 "HgN/A
9:30 AM48 °FScattered clouds.8 mph62%30.01 "HgN/A
9:00 AM48 °FScattered clouds.6 mph62%30.01 "HgN/A
Weather by CustomWeather, © 2015

See weather overviewHow to use our weather pages